Orbital Elements at Epoch 2459000.5 (2020-May-31.0) TDB
Reference: JPL 17 (heliocentric ecliptic J2000)
Element | Value | Uncertainty (1-sigma) | Units |
e | .1151095774738945 | 3.6374e-08 | |
a | 2.314596223943771 | 6.6476e-09 | au |
q | 2.048164030582932 | 8.508e-08 | au |
i | 4.338899265187814 | 4.6898e-06 | deg |
node | 53.07841195628913 | 4.857e-05 | deg |
peri | 25.18138752064423 | 5.3201e-05 | deg |
M | 283.6772183643058 | 2.0534e-05 | deg |
tp | 2459273.186084953328 (2021-Feb-27.68608495) | 7.3502e-05 | TDB |
period | 1286.208239261658 3.52 | 5.5411e-06 1.517e-08 | d yr |
n | .2798924692059634 | 1.2058e-09 | deg/d |
Q | 2.58102841730461 | 7.4128e-09 | au |
|
| | Orbit Determination Parameters
Additional Information
|